Find OneWeb SL0700

NORAD ID: 61606 Int'l Des: 2024-188 Owner: ONEWEBE Country: UK Constellation: oneweb operational
LEOCIRCULARPOLARONEWEB_TYPE

Live Position

Loading 3D Globe...

About OneWeb SL0700

Description loading...

Upcoming Passes

Passes for default location (London). Set your location on the main map for personalized predictions.

Altitude History

Loading altitude history...

Two-Line Element Set

1 61606U 24188N 26124.54069238 .00000614 00000-0 17236-2 0 9996
2 61606 87.8869 44.8528 0001276 64.6627 295.4632 13.10372059 77584
Epoch: May 4, 2026 • Age: 6 hours

Current Status

Altitude 1234.7 km
Velocity 7.24 km/s
Sub-Earth Point 87.86°N, 22.53°W
Launch Date Oct 20, 2024
Age 1.5 years
Type internet

Technical Details

Classification Payload
Mass 148.00 kg
Dry Mass 140.00 kg
Total Mass 148.00 kg
Length 1.30 m
Diameter 1.00 m
Span 5.00 m
Shape Trapezoid+2 pan
Manufacturer ONEWUS
Bus Type ARROW
Phase Status In Orbit
Owner/State ONEWEBE/UK

Most Searched